Regional Weather Roundup
Issued by NWS Green Bay, WI

Home | Current Version | Previous Version | Graphics & Text | Print | Product List | Glossary Off
Versions: 1 2 3 4 5 6 7 8 9 10 11 12 13 14 15 16 17 18 19 20 21 22 23 24 25 26 27 28 29 30 31 32 33 34 35 36 37 38 39 40 41 42 43 44 45 46 47 48 49 50

000
ASUS43 KGRB 230410
RWRGRB

NORTH-CENTRAL AND NORTHEAST WISCONSIN REGIONAL WEATHER ROUNDUP
NATIONAL WEATHER SERVICE GREEN BAY WI
1100 PM CDT TUE APR 22 2014

WIZ005-009-010>012-018-019-230500-
NORTH CENTRAL WISCONSIN

CITY           SKY/WX    TMP DP  RH WIND       PRES   REMARKS
IRONWOOD       CLEAR     32  25  74 E5        30.07R
MANITOWISH WTR CLEAR     28  25  88 CALM      30.09R
ARBOR VITAE    CLEAR     27  14  57 CALM      30.09R
EAGLE RIVER    CLEAR     28  25  90 CALM      30.09S
LAND O LAKES   CLEAR     27  25  90 CALM      30.10R
RHINELANDER    CLEAR     30  23  75 CALM      30.09S
PHILLIPS       CLEAR     30  25  82 CALM      30.09S
ANTIGO         CLEAR     32  26  78 N5        30.09S
TOMAHAWK       CLEAR     27  23  85 CALM      30.10R
MERRILL        CLEAR     31  27  86 CALM      30.10S
$$

WIZ013-073-230500-
NORTHEAST WISCONSIN

CITY           SKY/WX    TMP DP  RH WIND       PRES   REMARKS
IRON MOUNTAIN  CLEAR     26  21  81 NW5       30.09R
MARINETTE      CLEAR     34  25  69 N3        30.09S
OCONTO         CLEAR     35  27  73 CALM      30.10R
$$

WIZ017-030-035>037-045-230500-
CENTRAL WISCONSIN

CITY           SKY/WX    TMP DP  RH WIND       PRES   REMARKS
MEDFORD        CLEAR     33  28  80 CALM      30.10R
WAUSAU         CLEAR     36  26  67 CALM      30.09R
MOSINEE        CLEAR     37  27  65 CALM      30.11R
MARSHFIELD     CLEAR     40  25  55 CALM      30.10R
WISC RAPIDS    CLEAR     38  25  59 CALM      30.12R
STEVENS POINT  CLEAR     34  25  71 CALM      30.12R
WAUPACA        CLEAR     41  27  56 CALM      30.11R
SHAWANO        CLEAR     35  30  83 CALM      30.11R
CLINTONVILLE   CLEAR     41  28  60 CALM      30.10R
$$

WIZ038-039-048-051-230500-
FOX VALLEY

CITY           SKY/WX    TMP DP  RH WIND       PRES   REMARKS
NWS GREEN BAY  CLEAR     35  27  72 N7        30.10R
APPLETON       PTCLDY    37  27  65 N6        30.10R
OSHKOSH        CLEAR     39  28  64 CALM      30.09R
FOND DU LAC    CLEAR     39  29  67 N6        30.09R
$$

WIZ022-050-052-230500-
EAST CENTRAL WISCONSIN

CITY           SKY/WX    TMP DP  RH WIND       PRES   REMARKS
STURGEON BAY   CLEAR     34  25  69 N7        30.09S
MANITOWOC      CLEAR     38  28  67 N5        30.10R
SHEBOYGAN      CLEAR     38  28  67 N6        30.09R
$$

LMZ563-521-522-541>543-230500-
LAKESHORE

STATION/POSITION TIME  TEMP    WIND        PRES    VSBY  WAVE
                       AIR SEA DIR/SP/G                  HT/PER
                 (UTC) (F)     (DEG/KT/KT) (MB)    (MI)  (FT/S)
SHEBOYGAN LKSHOR 0400   37      50/ 10/ 11 1019.9R
KEWAUNEE LKSHORE 0400   37     340/  5/  7 1019.6R
NORTHPORT PIER   0400   33     320/  8/ 12 1018.6S
SISTER BAY LKSHO 0300   34      10/  9/ 10   N/A
MENOMINEE LKSHOR 0400   34     320/  7/  8 1019.5S
$$



USA.gov is the U.S. government's official web portal to all federal, state and local government web resources and services.